TimeCDT,TemperatureF,Dew PointF,Humidity,Sea Level PressureIn,VisibilityMPH,Wind Direction,Wind SpeedMPH,Gust SpeedMPH,PrecipitationIn,Events,Conditions,WindDirDegrees,DateUTC
12:56 AM,19.0,12.9,77,30.16,10.0,WNW,5.8,-,N/A,,Clear,300,2013-04-20 05:56:00
1:56 AM,17.1,12.0,81,30.17,10.0,Calm,Calm,-,N/A,,Clear,0,2013-04-20 06:56:00
2:56 AM,16.0,10.9,81,30.17,10.0,Calm,Calm,-,N/A,,Clear,0,2013-04-20 07:56:00
3:56 AM,16.0,10.9,81,30.18,10.0,Calm,Calm,-,N/A,,Clear,0,2013-04-20 08:56:00
4:56 AM,16.0,10.9,81,30.19,10.0,Calm,Calm,-,N/A,,Clear,0,2013-04-20 09:56:00
5:56 AM,14.0,10.0,84,30.20,10.0,Calm,Calm,-,N/A,,Clear,0,2013-04-20 10:56:00
6:56 AM,14.0,10.9,88,30.21,10.0,Calm,Calm,-,N/A,,Clear,0,2013-04-20 11:56:00
7:56 AM,18.0,12.9,81,30.23,10.0,Calm,Calm,-,N/A,,Clear,0,2013-04-20 12:56:00
8:56 AM,21.9,17.1,82,30.23,10.0,Calm,Calm,-,N/A,,Clear,0,2013-04-20 13:56:00
9:56 AM,26.1,17.1,69,30.23,10.0,SE,6.9,-,N/A,,Clear,140,2013-04-20 14:56:00
10:56 AM,30.0,19.0,64,30.22,10.0,SSE,10.4,-,0.00,,Clear,160,2013-04-20 15:56:00
11:56 AM,30.9,17.1,57,30.22,10.0,South,13.8,-,N/A,,Clear,170,2013-04-20 16:56:00
12:56 PM,33.1,18.0,54,30.21,10.0,South,16.1,-,N/A,,Clear,180,2013-04-20 17:56:00
1:56 PM,32.0,19.0,59,30.20,10.0,SSE,18.4,-,N/A,,Clear,160,2013-04-20 18:56:00
2:56 PM,33.1,19.0,56,30.19,10.0,South,18.4,23.0,N/A,,Mostly Cloudy,170,2013-04-20 19:56:00
3:56 PM,33.1,21.0,61,30.18,10.0,South,16.1,24.2,N/A,,Overcast,170,2013-04-20 20:56:00
4:56 PM,34.0,21.0,59,30.17,10.0,SSE,16.1,-,N/A,,Mostly Cloudy,160,2013-04-20 21:56:00
5:56 PM,33.1,21.0,61,30.16,10.0,South,15.0,-,N/A,,Overcast,170,2013-04-20 22:56:00
6:56 PM,32.0,21.0,64,30.16,10.0,SSE,13.8,-,N/A,,Overcast,160,2013-04-20 23:56:00
7:56 PM,30.9,21.9,69,30.14,10.0,SSE,15.0,-,N/A,,Overcast,150,2013-04-21 00:56:00
8:56 PM,30.0,19.9,66,30.13,10.0,SE,15.0,-,N/A,,Overcast,140,2013-04-21 01:56:00
9:56 PM,30.0,23.0,75,30.14,10.0,SSE,12.7,-,N/A,,Overcast,150,2013-04-21 02:56:00
10:22 PM,30.2,24.8,80,30.08,10.0,SSE,11.5,-,N/A,,Overcast,160,2013-04-21 03:22:00
10:56 PM,30.0,25.0,82,30.12,10.0,South,16.1,-,N/A,,Overcast,170,2013-04-21 03:56:00
11:08 PM,30.2,24.8,80,30.06,10.0,South,15.0,-,N/A,,Overcast,170,2013-04-21 04:08:00
11:53 PM,30.2,26.6,86,30.05,10.0,SSE,13.8,-,N/A,,Overcast,160,2013-04-21 04:53:00
11:56 PM,30.0,27.0,88,30.11,10.0,SSE,12.7,-,N/A,,Overcast,160,2013-04-21 04:56:00